Tracking 19909 objects as of 21-Oct-2019
HD Live streaming from Space Station
objects crossing your sky now

MICROSAT-R DEB

Track MICROSAT-R DEB now!
10-day predictions


NORAD ID: 44221
Int'l Code: 2019-006CX
Perigee: 165.2 km
Apogee: 196.1 km
Inclination: 96.8 °
Period: 88.0 minutes
Semi major axis: 6551 km
RCS: Unknown
Launch date: January 24, 2019
Source: India (IND)
Launch site: SRIHARIKOTA (SRI)

Note: This is SATELLITE DEBRIS
aabbcc
Your satellite tracking list
Your tracking list is empty




NASA's NSSDC Master Catalog

Two Line Element Set (TLE):
1 44221U 19006CX  19289.29570191  .02787536  21537-5  26447-3 0  9999
2 44221  96.8206 203.5338 0023528 217.9051 142.0831 16.37104755 27068
Source of the keplerian elements: AFSPC